Location: Apeadero de Los Molinos-Guadarrama
(40.7091°N, 4.0689°W)
Time: 12:04:40
(UTC+00:00)

Meteor 2-12 Rocket - Pass Details

Date: 14 May 2021
Orbit: 935 x 958 km, 82.5° (Epoch: 18 June)

Event Time Altitude Azimuth Distance (km) Brightness Sun altitude
Rises 21:45:14 0° 352° (N) 3,606 8.5 -21.3°
Reaches altitude 10° 21:47:44 10° 353° (N) 2,656 7.6 -21.6°
Maximum altitude 21:53:48 85° 83° (E) 944 4.3 -22.3°
Enters shadow 21:55:54 44° 168° (SSE) 1,275 4.7 -22.5°
